Weather History for Kendall, FL

Change the Weather History Date:

Monday, November 28, 2011

  Actual Average Record
Temperature  
Mean Temperature 73 °F -  
Max Temperature 82 °F 80 °F 85 °F (1989)
Min Temperature 64 °F 64 °F 50 °F (2008)
Cooling Degree Days 8    
Growing Degree Days 23 (Base 50)    
Moisture  
Dew Point 66 °F    
Average Humidity 78    
Maximum Humidity 100    
Minimum Humidity 58    
Precipitation  
Precipitation 0.00 in - - ()
Sea Level Pressure  
Sea Level Pressure 29.94 in    
Wind  
Wind Speed 6 mph (SSE)    
Max Wind Speed 13 mph    
Max Gust Speed 23 mph    
Visibility 10 miles    
Events Rain    
Averages and records for this station are not official NWS values.
T = Trace of Precipitation, MM = Missing Value Source: NWS Daily Summary

Daily Weather History Graph

Daily Weather History Graph

Search for Another Location

Airport:

Trip Planner

Search our weather history database for the weather conditions in past years. The results will help you decide how hot, cold, wet, or windy it might be!

Date:

Astronomy

Nov. 28, 2011 Rise Set
Actual Time 6:48 AM EST 5:30 PM EST
Civil Twilight 6:23 AM EST 5:55 PM EST
Nautical Twilight 5:55 AM EST 6:23 PM EST
Astronomical Twilight 5:27 AM EST 6:51 PM EST
Moon 9:59 AM EST 9:10 PM EST
Length of Visible Light 11h 31m
Length of Day
10h 41m
Waxing Crescent, 15% of the Moon is Illuminated
Nov 28
Waxing Crescent
Dec 2
First Quarter
Dec 10
Full
Dec 17
Last Quarter
Dec 24
New

Hourly Weather History & Observations

Time (EST) Temp. Heat Index Dew Point Humidity Pressure Visibility Wind Dir Wind Speed Gust Speed Precip Events Conditions
12:53 AM 73.0 °F - 66.0 °F 79% 29.97 in 10.0 mi ESE 9.2 mph - N/A   Clear
1:53 AM 73.0 °F - 66.9 °F 81% 29.96 in 10.0 mi ESE 9.2 mph - N/A   Clear
2:53 AM 71.1 °F - 66.0 °F 84% 29.94 in 10.0 mi ESE 4.6 mph - N/A   Clear
3:53 AM 72.0 °F - 66.9 °F 84% 29.93 in 10.0 mi SE 9.2 mph - N/A   Clear
4:53 AM 71.1 °F - 66.9 °F 87% 29.94 in 10.0 mi Calm Calm - N/A   Clear
5:53 AM 66.9 °F - 64.9 °F 93% 29.94 in 10.0 mi Calm Calm - N/A   Clear
6:53 AM 64.4 °F - 62.6 °F 94% 29.95 in 10.0 mi Calm Calm - N/A   Clear
7:01 AM 64.4 °F - 64.4 °F 100% 29.95 in 1.5 mi Calm Calm - N/A   Clear
7:08 AM 64.4 °F - 64.4 °F 100% 29.95 in 10.0 mi Calm Calm - N/A   Clear
7:53 AM 71.1 °F - 68.0 °F 90% 29.96 in 10.0 mi SE 3.5 mph - N/A   Scattered Clouds
8:53 AM 73.9 °F - 68.0 °F 82% 29.96 in 10.0 mi SSE 9.2 mph - N/A   Scattered Clouds
9:53 AM 75.0 °F - 66.9 °F 76% 29.97 in 10.0 mi SE 9.2 mph - N/A   Scattered Clouds
10:53 AM 78.1 °F - 68.0 °F 71% 29.96 in 10.0 mi SSE 11.5 mph - N/A   Mostly Cloudy
11:53 AM 80.1 °F 82.3 °F 66.9 °F 64% 29.94 in 10.0 mi SE 10.4 mph 23.0 mph 0.00 in   Partly Cloudy
12:53 PM 81.0 °F 83.3 °F 66.9 °F 62% 29.91 in 10.0 mi SSE 12.7 mph - N/A   Scattered Clouds
1:53 PM 81.0 °F 83.3 °F 66.9 °F 62% 29.90 in 10.0 mi SSE 12.7 mph - N/A   Mostly Cloudy
2:53 PM 82.0 °F 84.5 °F 66.9 °F 60% 29.89 in 10.0 mi SE 11.5 mph - N/A   Scattered Clouds
3:53 PM 81.0 °F 82.7 °F 64.9 °F 58% 29.89 in 10.0 mi SSW 12.7 mph - N/A   Scattered Clouds
4:53 PM 79.0 °F - 64.0 °F 60% 29.90 in 10.0 mi South 8.1 mph - N/A   Clear
5:53 PM 75.0 °F - 64.0 °F 69% 29.91 in 10.0 mi SSW 3.5 mph - N/A   Clear
6:53 PM 73.0 °F - 64.9 °F 76% 29.92 in 10.0 mi Calm Calm - N/A   Clear
7:53 PM 73.0 °F - 64.9 °F 76% 29.93 in 10.0 mi SSE 3.5 mph - N/A   Clear
8:53 PM 71.1 °F - 64.9 °F 81% 29.94 in 10.0 mi Calm Calm - N/A   Scattered Clouds
9:53 PM 72.0 °F - 66.0 °F 81% 29.94 in 10.0 mi Calm Calm - N/A   Mostly Cloudy
10:53 PM 73.0 °F - 66.9 °F 81% 29.94 in 10.0 mi Calm Calm - N/A   Overcast
11:53 PM 71.1 °F - 66.0 °F 84% 29.95 in 10.0 mi West 11.5 mph - 0.00 in Rain Light Rain